Meteo Giornale » Osservazioni meteo Stati Uniti (USA) » Caldwell Essex

ore: 16:53 - Osservazioni Meteo Caldwell Essex
Lat. 40° 52' N Lon. 74° 16' W Alt. 52 metri s.l.m.

nuvoloso

29 °C

Nuvoloso

Temp. 24 Ore

21 °C

29 °C

Sud/Sud-Ovest

7.4 Km/h

Dew point 23 °C

Umidità 70 %

Visibilità  10 Km

Il sole sorge alle ore 06:24

Il sole tramonta alle ore 19:29

Data e Ora Cielo e Fenomeni T °C DP °C Um. % Pres. hPa Vis. km Vento km/h
Oggi h: 16:53 nuvoloso Nuvoloso 29 23 70 1013 10 S/SO 7.4
Oggi h: 16:26 coperto Coperto 28 23 74 1013 10 N 0
Oggi h: 15:53 coperto Coperto 28 23 74 1014 10 N 0
Oggi h: 15:50 coperto Coperto 28 23 74 1014 10 N 0
Oggi h: 15:15 coperto Coperto 28 23 74 1014 10 N 0
Oggi h: 14:53 coperto Coperto 27 23 78 1014 10 N 5.5
Oggi h: 14:22 molto_nuvoloso Molto Nuvoloso 27 23 78 1014 10 N 0
Oggi h: 13:53 nuvoloso Nuvoloso 26 23 83 1014 10 N 7.4
Oggi h: 13:19 foschia Foschia 24 23 94 1014 10 N 9.3
Oggi h: 12:53 nuvoloso_temporali Temporale nelle vicinanze 24 22 88 1015 11 N 0
Oggi h: 12:49 nuvoloso_temporali Temporale nelle vicinanze 24 22 88 1015 11 N 0
Oggi h: 12:17 foschia Foschia 23 22 94 1015 8 N 5.5
Oggi h: 11:53 foschia Foschia 23 22 94 1015 10 N 0
Oggi h: 11:19 coperto_pioggia Pioggia Foschia 23 22 94 1016 5 N 0
Oggi h: 11:09 coperto_pioggia Pioggia Foschia 23 22 94 1016 2 N 5.5
Oggi h: 10:53 coperto_pioggia Pioggia Foschia 23 22 94 1016 5 N 0
Oggi h: 09:53 coperto Coperto 23 22 94 1016 13 N 0
Oggi h: 09:22 coperto Coperto 22 21 94 1016 13 N 5.5
Oggi h: 08:53 coperto Coperto 22 21 94 1016 11 N 5.5
Oggi h: 07:53 foschia Foschia 22 21 94 1015 10 N 0
Oggi h: 07:42 coperto_pioggia Pioggia Foschia 22 21 94 1016 10 N 0
Oggi h: 06:53 coperto_pioggia Pioggia Foschia 21 21 100 1016 10 N 0
Oggi h: 05:53 molto_nuvoloso Molto Nuvoloso 21 21 100 1016 13 N 0
Oggi h: 04:53 nuvoloso Nuvoloso 21 21 100 1016 10 N 0
Oggi h: 04:33 molto_nuvoloso Molto Nuvoloso 21 21 100 1016 10 N 0
Oggi h: 04:13 coperto Coperto 21 21 100 1016 10 N 0
Oggi h: 03:53 coperto Coperto 21 21 100 1016 10 N 0
Oggi h: 02:53 coperto Coperto 21 20 94 1017 10 N 0
Oggi h: 01:53 coperto_pioggia Pioggia 21 20 94 1017 10 N 5.5
Oggi h: 01:15 coperto Coperto 22 21 94 1017 10 N 0
Oggi h: 00:53 coperto_pioggia Pioggia 21 21 100 1017 14 N 0
Oggi h: 00:13 coperto_pioggia Pioggia Foschia 22 21 94 1017 10 N 0
Ieri h: 23:53 coperto_pioggia Pioggia 22 21 94 1017 10 N 0
Ieri h: 22:53 coperto Coperto 23 19 78 1018 10 N 5.5
Ieri h: 21:53 coperto Coperto 23 19 78 1018 10 N 5.5
Ieri h: 20:53 coperto Coperto 23 19 78 1018 10 N 5.5
Ieri h: 19:53 coperto Coperto 24 18 69 1018 10 N 0
Ieri h: 18:53 coperto Coperto 24 18 69 1018 10 N 0
Ieri h: 17:53 nuvoloso Nuvoloso 24 18 69 1018 10 N 0